Location: Usti nad Orlici
(49.9830°N, 16.4000°E)
Time: 04:52:52
(UTC+02:00)

ISS - Pass Details

Date: 01 April 2019
Orbit: 408 x 410 km, 51.6° (Epoch: 21 April)

Event Time Altitude Azimuth Distance (km) Brightness Sun altitude
Rises 21:46:37 0° 288° (WNW) 2,339 1.3 -21.5°
Reaches altitude 10° 21:48:45 10° 282° (WNW) 1,475 -0.1 -21.8°
Enters shadow 21:51:08 38° 252° (WSW) 639 -2.6 -22.1°
